Temp
8 8 8 8 9 9 9 12 13 11 11 13 13 13 13 12 12 12 12 13 13 13 13 11 10 10 9 11 11 11 10 10 10 14 13 13 12 11 13 11 12 12 12 13
8 8 8 8 9 9 9 14 13 11 10 12 14 12 12 12 12 13 12 13 13 13 13 12 12 12 12 11 11 11 11 11 12 13 12 12 12 12 12 13 12 11 12 14
8 8 8 8 9 9 9 13 11 13 14 12 15 13 13 12 12 12 12 13 12 12 13 13 12 12 12 10 11 9 10 11 12 13 15 14 13 13 13 12 10 13 12 13
8 9 9 8 8 10 9 12 12 10 13 13 13 13 13 12 12 12 12 12 12 13 12 13 12 12 12 11 10 10 10 10 13 13 13 13 13 12 13 12 11 11 11 10
8 9 9 9 9 10 11 13 13 11 12 11 12 11 12 12 12 12 12 11 13 12 12 13 12 12 12 12 10 9 10 10 12 12 14 12 12 13 13 13 13 12 12 12
8 8 9 9 9 9 11 8 8 12 10 13 13 14 13 12 12 12 12 12 12 12 12 13 13 13 13 13 11 11 10 10 12 11 14 13 14 15 15 15 15 15 14 17
8 8 8 9 9 9 8 8 10 13 15 13 13 12 12 11 12 12 12 11 11 11 11 11 11 10 11 11 11 11 11 10 11 11 13 14 15 15 15 15 16 16 16 16
8 8 7 8 8 8 7 7 9 12 14 13 13 11 11 11 11 10 11 12 12 10 10 11 13 12 11 10 10 10 11 10 10 10 11 14 16 14 14 14 16 17 16 17
8 8 7 7 8 8 7 7 7 10 12 14 12 12 12 12 13 11 10 10 9 10 11 12 12 14 13 13 9 8 9 10 9 11 9 13 17 14 14 14 14 17 16 16
8 7 7 7 7 7 6 6 7 8 11 13 11 12 13 12 11 12 11 10 9 9 12 12 13 14 12 13 13 8 7 7 8 10 10 13 16 14 13 14 17 16 15 15
8 7 7 7 7 7 7 6 6 7 10 11 8 10 10 9 11 12 10 10 9 10 11 12 13 13 14 11 14 12 11 10 9 10 11 10 14 13 13 16 15 15 15 14
8 7 7 7 7 7 6 7 6 5 6 10 6 7 8 9 10 11 10 11 10 12 12 12 13 12 13 13 14 13 12 14 15 13 14 16 14 15 15 15 14 14 14 14
8 8 7 7 7 6 6 6 5 5 7 9 7 8 7 6 6 7 10 10 10 9 9 12 12 11 13 13 13 14 13 14 12 13 15 15 16 15 15 15 14 14 13 13
8 8 7 7 7 6 5 5 6 5 7 7 11 5 5 4 4 5 7 7 6 7 8 10 11 11 12 12 14 12 15 12 12 13 15 15 15 15 15 15 13 12 12 12
7 8 8 7 6 6 5 5 5 6 7 8 9 7 4 3 3 4 4 6 8 8 8 9 9 11 9 10 10 10 14 13 13 15 16 16 16 14 13 12 12 12 12 12
7 8 8 7 6 6 4 5 5 5 5 5 6 5 4 2 3 4 4 5 7 8 8 9 10 10 8 9 10 14 14 14 15 15 16 14 14 13 12 11 11 11 11 11
7 7 8 8 7 6 5 5 5 4 5 4 5 8 3 3 3 3 4 4 6 6 7 7 8 8 7 8 9 15 15 14 14 14 14 11 12 13 12 11 11 10 9 9
7 7 7 7 7 5 4 4 5 4 4 2 5 7 5 2 4 4 4 5 5 5 6 7 5 7 6 6 9 12 13 14 13 13 12 12 13 12 11 10 10 9 9 10
7 7 7 6 5 4 4 5 4 4 4 4 4 6 8 2 4 3 3 4 4 6 4 5 6 7 6 8 9 10 11 11 11 11 11 11 10 10 10 10 9 9 10 10
7 6 6 3 4 4 5 3 2 2 3 2 4 7 6 4 3 3 4 3 5 4 5 5 4 6 8 9 10 11 12 12 10 9 8 8 8 9 9 10 10 9 9 9
6 4 3 3 3 4 4 3 3 3 4 3 3 6 6 3 5 5 5 4 5 4 6 4 6 5 5 9 9 10 10 11 10 10 11 11 10 10 10 9 9 8 8 7
6 4 3 3 2 3 4 5 4 4 6 5 4 5 7 3 5 5 3 4 4 5 5 3 4 6 8 9 9 8 8 10 10 10 9 9 8 8 8 8 7 7 7 6
4 2 1 2 2 4 5 6 6 5 5 5 3 3 4 3 3 5 3 4 5 4 3 4 7 8 8 8 7 7 7 7 8 8 7 7 7 6 6 6 6 6 5 5
3 3 4 4 5 5 7 8 8 7 6 4 4 4 5 4 3 5 4 5 3 4 4 5 7 8 9 9 6 6 5 5 5 5 5 5 5 5 5 4 5 4 5 5
2 2 5 5 7 7 5 6 5 4 5 4 3 3 4 3 4 4 4 3 4 6 7 7 7 8 8 7 5 5 5 3 2 2 2 2 3 3 3 4 4 3 3 3
2 2 4 5 4 6 4 3 4 4 5 5 5 4 4 5 5 4 5 6 6 7 5 6 7 5 4 4 5 4 5 5 4 4 3 3 2 2 2 3 3 3 3 2
3 3 3 5 5 6 7 5 5 5 4 5 5 4 5 5 5 5 6 6 10 6 5 5 6 5 5 3 3 3 3 4 4 4 3 3 4 4 2 2 4 4 4 3
Height
861 858 856 853 849 846 846 845 840 842 840 839 836 838 841 846 845 846 844 843 841 839 839 846 850 851 851 848 848 845 846 846 838 815 820 820 824 825 819 822 816 814 810 786
862 860 857 853 850 847 847 842 842 843 841 838 836 845 845 844 844 843 844 841 843 842 841 844 840 841 843 847 846 843 844 835 826 814 821 822 820 820 819 817 819 813 806 777
863 861 858 854 851 848 848 844 846 842 842 843 834 839 842 843 846 843 844 843 843 841 838 839 838 838 841 847 846 850 848 834 829 814 805 810 814 810 812 815 823 798 791 778
863 859 857 855 852 849 849 847 847 851 842 840 841 843 843 842 843 846 845 842 842 840 839 835 837 837 839 843 847 846 843 835 820 815 811 809 806 804 803 808 807 808 786 790
863 860 857 855 852 850 850 846 847 850 844 848 843 848 841 842 842 844 841 843 839 841 841 835 836 836 837 836 846 848 844 833 820 809 795 802 799 792 790 791 789 789 784 774
863 860 858 856 853 851 852 854 853 850 849 843 841 835 838 841 844 841 842 842 842 839 837 835 834 833 834 834 838 838 840 833 820 808 796 795 782 767 769 774 771 772 774 755
864 862 858 855 853 852 854 854 854 845 835 843 839 843 843 843 843 843 841 844 842 842 843 840 837 839 836 834 833 836 833 837 826 817 799 786 768 767 766 768 763 759 758 754
862 862 860 857 854 854 853 853 854 848 837 836 838 843 843 843 842 845 841 839 842 845 843 833 822 823 831 831 834 835 837 837 830 823 809 779 759 767 771 769 757 749 753 752
860 859 859 858 855 853 853 853 853 853 845 829 837 839 840 836 833 839 840 842 843 844 836 829 822 811 812 814 835 843 838 837 841 821 827 785 755 765 767 769 762 748 752 752
856 857 857 857 856 853 853 853 853 853 844 832 837 834 833 837 837 832 835 838 841 842 828 825 817 808 816 810 807 837 843 842 838 826 822 782 756 765 769 767 750 749 750 750
852 854 854 853 853 853 852 853 853 855 845 835 838 836 836 839 837 830 838 838 838 836 830 820 812 814 804 812 797 805 810 817 819 815 807 796 759 768 765 750 751 752 752 751
846 849 851 852 850 850 850 851 851 852 854 840 837 835 835 836 836 833 836 832 832 824 820 819 814 812 807 802 792 795 798 783 777 781 763 749 752 746 747 747 750 751 751 749
840 842 845 847 848 847 848 847 848 850 849 835 834 827 829 829 832 835 833 830 830 831 830 821 815 816 806 797 791 782 781 779 780 775 743 745 745 745 745 745 746 747 747 747
834 836 839 841 842 843 844 843 844 847 848 841 821 827 826 825 828 831 833 833 833 833 834 826 819 814 804 792 784 784 768 776 769 758 743 742 737 737 738 739 743 745 746 745
829 829 833 835 838 838 840 841 840 842 844 834 824 824 824 824 823 825 829 831 832 830 828 824 818 810 811 797 793 768 758 753 758 737 730 731 728 735 739 742 743 743 741 739
824 824 827 830 832 834 840 840 833 837 839 842 829 819 819 822 824 826 827 829 831 829 826 816 809 806 810 794 774 734 738 735 733 728 727 732 732 736 738 739 738 739 739 736
817 818 820 824 825 827 832 831 830 831 838 839 829 809 819 820 821 825 826 829 828 829 824 815 807 806 810 791 759 724 722 724 726 728 731 735 733 730 733 734 734 734 733 733
811 812 814 817 820 823 826 825 827 831 835 835 826 808 819 823 819 820 822 820 825 822 814 807 808 804 803 778 725 722 720 721 721 721 724 726 726 728 730 732 731 729 727 725
806 807 810 813 817 819 818 823 825 826 831 825 819 806 796 820 817 817 823 820 817 811 810 801 801 787 776 722 720 713 714 716 717 718 718 722 725 724 725 726 727 725 721 718
800 803 807 810 810 814 820 824 826 825 818 815 805 797 794 804 809 813 815 818 810 804 793 793 789 755 733 713 709 710 708 708 714 716 717 718 718 719 720 720 720 720 720 718
795 795 800 807 812 815 817 815 815 809 803 797 793 786 785 804 799 800 806 804 801 800 780 788 761 742 717 696 697 697 700 703 706 708 705 705 708 711 714 715 715 715 715 715
791 793 799 805 809 812 811 798 794 788 778 776 778 778 778 795 793 793 802 795 800 785 784 786 757 717 693 693 692 692 693 692 694 700 704 704 705 709 711 712 712 712 711 710
789 793 797 796 801 795 782 769 765 764 761 761 769 776 780 790 791 789 795 788 781 784 785 759 721 695 687 688 689 688 689 693 693 694 697 700 701 702 708 709 710 711 708 706
782 786 784 779 770 756 737 735 735 740 746 753 759 769 771 776 783 780 779 771 778 774 765 733 695 683 681 681 683 682 684 689 694 696 695 694 697 699 706 707 706 706 704 703
779 775 758 754 735 735 737 735 739 745 746 750 760 765 766 770 769 768 766 770 757 741 716 692 680 676 677 680 682 676 680 684 685 688 692 693 692 691 696 699 700 702 700 700
773 763 750 738 741 733 741 742 741 744 750 754 752 755 756 750 748 749 742 737 723 695 696 680 676 677 678 678 673 672 674 677 679 679 681 684 687 686 687 690 690 695 694 693
757 747 745 735 732 725 723 728 731 736 744 743 744 740 729 728 729 725 713 703 671 680 681 677 674 676 673 670 668 669 667 673 676 677 674 675 677 680 681 682 680 685 688 686
Wind_Speed
15 17 18 20 18 11 3 3 1 5 2 1 1 3 2 1 6 4 2 3 2 2 2 2 1 2 3 1 1 3 2 3 5 2 3 2 2 3 2 2 1 4 4 5
14 15 17 20 19 13 4 2 2 3 2 1 3 4 4 1 4 3 2 2 3 1 3 3 3 2 1 3 2 3 2 2 5 5 3 2 4 4 7 6 5 10 4 4
14 14 15 18 20 11 2 2 2 2 2 2 2 3 3 3 2 3 2 3 2 4 4 4 3 3 1 3 3 0 2 4 7 7 9 9 13 12 9 9 4 5 10 14
13 13 14 16 19 11 2 3 2 2 1 2 2 1 1 3 3 3 3 3 7 4 3 4 4 3 4 4 2 3 3 6 10 15 19 19 19 18 16 16 17 7 3 7
12 13 14 14 16 10 2 2 2 1 1 0 2 2 4 4 2 3 4 5 2 5 5 5 6 4 5 5 4 2 2 5 13 14 9 7 13 15 16 17 19 22 24 24
12 12 12 13 13 8 3 2 1 2 4 1 3 1 2 4 2 4 6 5 5 8 9 8 8 9 9 9 7 5 4 5 9 5 7 16 14 10 16 13 11 16 15 14
11 12 11 9 10 9 3 1 2 2 1 3 3 2 4 5 7 5 2 5 6 3 3 9 11 9 12 12 12 10 7 6 5 7 13 4 3 1 1 8 13 14 16 16
11 11 11 9 7 6 3 1 2 2 4 3 6 7 5 4 6 6 8 8 5 5 6 4 4 4 4 4 3 9 10 8 5 4 6 13 6 2 5 5 6 4 7 8
14 12 10 9 6 4 2 1 0 2 4 2 2 3 4 5 5 3 4 2 2 2 3 3 3 2 2 3 5 2 6 9 5 3 5 4 3 5 3 1 6 7 3 4
15 15 12 9 8 4 0 2 2 3 3 3 5 4 3 2 2 3 1 4 4 3 3 3 3 2 1 3 4 6 4 4 11 10 7 10 9 8 5 3 3 4 3 4
17 17 16 12 9 7 2 2 4 3 3 5 6 4 5 3 3 3 3 2 3 4 4 3 3 3 2 3 6 5 10 7 6 7 7 9 10 8 6 3 1 4 8 10
18 18 18 17 12 9 6 3 4 5 6 5 5 10 11 9 6 3 4 4 1 3 4 3 2 4 3 4 4 6 6 9 3 10 6 4 12 12 9 7 9 13 14 16
17 20 19 20 17 13 11 4 5 2 4 6 4 5 7 15 16 8 4 3 3 2 3 3 3 7 3 4 6 5 9 13 6 3 8 18 19 18 16 15 15 11 9 11
18 19 22 22 21 16 15 14 10 5 3 4 1 1 2 5 8 13 10 2 3 1 2 3 4 4 5 4 7 9 6 9 10 15 20 20 20 18 16 12 7 7 9 9
20 19 23 23 22 19 16 17 18 14 4 3 5 5 3 4 5 9 11 11 7 4 4 5 5 4 3 6 6 13 11 12 12 8 11 12 8 5 2 7 8 11 13 13
21 19 22 25 22 18 7 3 14 25 14 2 4 2 4 3 5 6 8 10 6 5 4 5 5 3 3 5 6 8 15 20 18 9 3 7 6 5 8 11 11 9 10 10
19 18 21 26 24 25 7 4 2 15 18 2 3 4 3 6 6 4 4 5 3 4 4 5 7 5 5 4 10 6 12 17 17 17 13 11 13 7 2 7 10 14 15 17
17 17 17 25 26 20 10 11 7 23 4 2 3 2 1 8 3 3 5 4 4 5 4 2 4 3 4 7 15 20 22 14 13 16 16 15 9 9 10 10 9 10 10 9
15 12 13 11 8 6 5 10 13 23 7 3 4 3 1 4 2 2 3 3 4 3 4 4 6 6 8 17 12 16 14 12 8 12 12 12 13 12 10 10 10 11 10 7
12 14 5 2 8 11 16 7 3 3 3 4 4 3 5 7 5 4 4 3 3 4 6 3 6 8 21 27 18 13 9 12 11 8 11 12 8 11 11 10 8 8 10 9
5 5 3 7 23 5 3 4 5 4 4 5 5 10 6 3 4 4 5 3 3 4 3 5 4 5 10 16 20 18 22 17 15 15 10 9 6 6 7 8 9 8 9 9
11 13 11 8 3 2 5 5 4 6 6 7 6 4 6 4 3 3 5 4 4 7 5 3 5 6 12 11 10 7 9 14 19 15 15 10 8 8 8 9 8 10 10 10
13 4 4 4 4 7 8 11 6 6 6 7 5 4 5 3 3 2 4 7 7 2 4 5 6 9 5 4 4 4 4 8 11 14 14 14 11 11 12 7 11 10 10 9
3 5 6 7 7 9 7 5 5 4 4 10 9 5 4 3 5 3 5 4 2 4 5 9 5 11 8 8 7 6 7 8 8 10 9 9 8 6 11 14 11 9 10 12
4 4 7 10 8 2 2 1 3 1 8 11 5 3 3 3 4 5 4 5 7 8 7 4 4 6 4 5 6 9 8 8 9 6 7 7 9 7 9 14 14 14 14 14
3 5 4 5 2 4 3 3 2 4 7 4 1 4 4 6 5 8 11 6 9 6 4 6 2 3 6 8 7 9 9 10 10 9 12 12 11 9 12 13 15 19 18 18
5 6 6 8 6 6 4 6 6 13 9 5 3 7 13 4 5 6 7 7 10 3 4 5 6 6 10 6 5 6 8 8 8 12 13 15 16 14 10 7 15 18 20 22
Wind_Direction
3 2 3 4 4 3 15 300 287 344 5 12 21 88 89 54 152 200 235 276 284 291 343 300 281 270 216 136 316 325 34 302 277 280 87 27 183 237 256 267 81 261 271 276
5 6 5 4 4 7 337 335 351 339 325 59 111 123 125 220 182 213 208 249 265 316 295 298 235 222 151 195 223 353 30 220 300 163 165 154 233 225 226 247 262 246 281 270
7 6 3 3 3 8 14 294 333 39 50 360 55 145 155 176 205 248 243 291 261 265 261 222 285 275 146 177 241 350 226 264 253 270 298 311 278 259 224 230 249 269 238 272
4 7 2 359 2 1 26 359 63 14 341 81 86 210 177 203 214 231 225 215 241 255 284 257 251 267 271 182 164 221 260 272 281 276 278 277 271 266 255 235 232 248 295 280
353 360 4 6 4 4 38 345 325 178 34 198 232 178 192 224 208 238 217 241 214 233 255 288 296 300 295 281 157 222 214 275 305 295 291 277 268 256 251 246 243 242 260 273
333 351 1 9 14 25 11 29 128 297 114 242 261 167 187 212 201 206 262 271 270 253 264 284 288 285 275 269 257 234 260 303 325 278 308 304 278 266 223 224 232 234 248 271
317 329 347 5 15 34 44 13 301 275 340 266 271 218 220 229 231 271 233 232 247 36 321 286 258 274 260 254 248 247 259 276 280 289 309 250 50 207 335 253 267 251 256 275
298 310 325 341 5 20 60 48 299 299 285 296 265 245 240 244 238 242 254 244 270 325 294 272 261 189 215 205 216 239 236 257 283 277 296 282 277 189 206 214 290 271 256 300
285 288 299 312 327 355 58 269 160 291 296 166 236 223 233 259 233 224 222 184 221 246 264 258 261 265 10 189 168 353 211 225 254 316 283 260 59 150 149 145 268 142 180 307
276 275 277 287 298 307 274 264 223 253 263 225 184 217 251 189 264 276 150 176 188 216 226 248 250 265 6 241 230 170 174 197 223 238 259 279 269 149 155 245 76 154 221 278
272 268 266 262 269 274 225 256 231 279 275 268 211 206 192 184 222 261 100 237 194 199 228 245 231 250 205 258 237 192 193 187 199 200 231 259 144 136 209 38 107 316 296 288
264 261 259 259 250 247 227 242 253 229 255 303 235 244 247 251 290 269 184 316 243 251 256 245 289 243 234 263 265 203 238 217 245 208 230 237 197 236 223 276 293 300 297 296
260 257 250 250 249 238 221 207 199 198 274 269 243 231 228 235 230 231 246 196 267 248 1 316 283 254 250 241 234 249 226 238 236 275 251 248 253 241 249 265 279 283 284 296
259 255 249 244 244 236 223 215 224 187 284 279 236 226 218 209 218 223 233 275 136 84 262 250 256 251 202 254 273 255 246 150 224 253 269 278 270 258 243 269 246 256 274 282
264 252 252 240 239 234 222 239 240 212 211 288 292 282 204 223 193 201 212 222 221 211 213 221 238 258 271 240 271 253 209 226 220 238 235 249 287 168 186 250 265 287 283 278
267 254 253 239 230 219 189 283 242 224 197 289 281 131 173 142 172 178 192 209 222 226 231 238 233 222 242 256 243 249 216 226 226 239 288 258 285 272 263 263 274 273 282 275
267 260 250 242 221 201 180 209 259 189 175 218 275 245 157 154 140 155 159 180 208 237 237 237 241 195 207 250 246 237 230 227 229 240 254 263 250 255 208 253 273 279 276 275
266 257 250 247 219 191 218 216 175 163 171 187 256 258 247 181 169 169 183 177 197 215 243 218 224 193 229 257 247 242 249 255 237 229 223 240 270 288 277 279 278 273 276 280
264 255 241 181 171 169 199 191 180 177 213 222 203 218 225 177 162 104 174 219 227 207 233 228 192 202 222 242 231 243 233 220 225 227 215 219 235 253 267 271 266 266 272 274
246 174 159 186 177 151 138 134 160 222 207 224 224 216 218 176 165 172 159 191 241 248 225 185 226 250 250 260 249 252 244 224 210 193 203 206 227 235 245 245 258 267 277 287
175 144 113 113 145 125 175 211 198 182 233 207 198 214 182 223 155 166 204 186 217 257 203 220 245 256 247 255 249 248 243 231 219 220 214 194 195 200 239 251 250 255 266 271
191 135 109 137 142 187 213 212 200 203 225 178 192 209 199 156 182 167 176 207 183 252 144 238 256 248 253 268 255 244 244 229 218 214 223 217 221 226 235 248 254 254 260 271
135 95 143 164 164 214 209 203 200 192 196 178 161 142 145 146 211 165 187 205 220 88 228 240 244 265 260 260 248 217 213 235 225 216 219 227 217 211 228 244 253 270 281 288
166 172 197 215 192 226 205 208 182 177 166 152 151 135 163 148 167 175 216 201 161 234 237 236 232 241 244 237 197 176 186 200 215 217 204 199 198 199 230 240 251 265 274 286
221 203 218 217 241 283 1 150 127 127 148 152 123 112 170 160 203 198 199 191 226 220 234 235 242 242 238 233 216 186 199 199 207 195 203 205 196 188 222 238 249 251 259 271
242 234 245 239 291 242 191 178 135 136 148 146 162 156 190 206 204 186 207 206 221 239 221 243 259 226 230 225 205 206 208 209 213 203 205 205 205 206 223 238 239 243 249 257
225 235 230 253 273 255 227 178 172 156 160 202 194 203 215 152 197 213 200 214 235 171 224 236 231 244 251 242 226 215 189 213 221 219 200 208 212 204 198 228 246 251 259 257